#timestamp,LO_Frequency,Hit,StdDev 
1637463615.2,286047000.3,N
1637463635.9,286046999.9,N
1637463655.7,286047002.4,N
1637463675.6,286047000.2,N
1637463695.4,286047000.2,N
1637463715.2,286047002.2,N
1637463735.1,286046999.8,N
1637463736.0,286046999.8,N
1637463755.8,286047000.4,N
1637463775.7,286047002.4,N
1637463795.5,286047002.1,N
1637463815.3,286047002.2,N
1637463835.2,286047003.9,N
1637463855.0,286047001.5,N
1637463855.9,286047001.5,N
1637463875.7,286047001.5,N
1637463895.6,286047002.7,N
1637463915.4,286047000.2,N
1637463935.3,286047002.4,N
1637463955.1,286047002.0,N
1637463956.0,286047002.0,N
1637463975.8,286047003.0,N
1637463995.7,286047001.6,N
1637464015.5,286047003.8,Y
1637464035.4,286047000.5,P
1637464055.2,286047000.4,N
1637464075.0,286047002.6,P
1637464075.9,286047002.6,N
1637464095.8,286047002.7,N
1637464115.6,286047002.4,N
1637464135.5,286047000.2,N
1637464155.3,286047000.7,N
1637464175.1,286046998.6,N
1637464195.9,286046999.0,N
1637464215.7,286046998.8,N
1637464235.5,286046998.4,N
1637464255.4,286047001.1,N
1637464275.2,286047000.8,N
1637464295.1,286047000.9,N
1637464296.0,286047000.9,N
1637464315.8,286047000.3,N
1637464335.6,286047000.1,N
1637464355.5,286047000.0,N
1637464375.3,286047000.0,N
1637464395.1,286047000.3,N
1637464415.9,286047000.9,N
1637464435.7,286047000.1,N
1637464455.6,286046999.7,N
1637464475.4,286047001.5,N
1637464495.2,286047001.8,N
1637464515.1,286047002.1,N
1637464516.0,286047002.1,N
1637464535.8,286047001.3,N
1637464555.7,286047002.5,N
1637464575.5,286047002.5,N
1637464595.3,286047002.6,N
1637464615.2,286047002.8,N
1637464635.9,286047000.3,N
1637464655.7,286047000.0,N
1637464675.6,286046998.2,N
1637464695.4,286046998.6,N
1637464715.3,286046998.8,N
1637464735.1,286047001.2,N
1637464736.0,286047001.2,N
1637464755.8,286047001.0,N
1637464775.7,286047000.8,N
1637464795.5,286047001.4,N
1637464815.4,286047002.5,N
1637464835.2,286047000.4,N
1637464855.0,286046999.9,N
1637464855.9,286046999.9,N
1637464875.8,286047000.0,N
1637464895.6,286047000.2,N
1637464915.5,286047000.2,N
1637464935.3,286047000.2,N
1637464955.1,286047002.3,N
1637464975.9,286047002.8,N
1637464995.7,286047002.5,N
1637465015.6,286047000.4,N
1637465035.4,286047000.2,N
1637465055.2,286047000.6,N
1637465075.1,286047000.3,N
1637465076.0,286047000.3,N
1637465095.8,286047002.4,N
1637465115.6,286047002.8,N
1637465135.5,286047002.1,N
1637465155.3,286047002.4,N
1637465175.2,286047000.3,N
1637465195.9,286047001.2,N
1637465215.7,286047000.7,N
1637465235.6,286047000.7,N
1637465255.4,286047001.1,N
1637465275.2,286047000.7,N
1637465295.1,286047001.1,N
1637465296.0,286047001.1,N
1637465315.8,286047001.2,N
1637465335.7,286046998.2,N
1637465355.5,286047001.1,N
1637465375.3,286047000.5,N
1637465395.2,286047000.7,N
1637465415.0,286047000.5,N
1637465415.9,286047000.5,N
1637465435.7,286047000.2,N
1637465455.6,286046998.5,N
1637465475.4,286046998.8,N
1637465495.3,286046998.4,N
1637465515.1,286046999.4,N
1637465535.8,286046998.4,N
1637465555.7,286047000.3,N
1637465575.5,286046999.8,N
1637465595.3,286047000.2,N
1637465615.2,286046999.7,N
1637465635.0,286047001.2,N
1637465635.9,286047001.2,N
1637465655.8,286046998.3,N
1637465675.7,286046998.3,N
1637465695.5,286046998.7,N
1637465715.4,286046998.5,N
1637465735.2,286047001.0,N
1637465755.0,286047001.2,N
1637465755.9,286047001.2,N
1637465775.8,286046999.9,N
1637465795.6,286047002.7,N
1637465815.5,286047000.7,N
1637465835.3,286047000.0,N
1637465855.1,286047000.8,N
1637465875.9,286047000.2,N
1637465895.7,286047000.0,N
1637465915.6,286047002.8,N
1637465935.4,286047002.8,N
1637465955.2,286047002.2,N
1637465975.1,286047002.0,N
1637465976.0,286047002.0,N
1637465995.8,286047004.0,N
1637466015.7,286047001.5,N
1637466035.5,286047003.9,N
1637466055.3,286047001.7,N
1637466075.2,286047002.8,N
1637466095.0,286047002.5,N
1637466095.9,286047002.5,N
1637466115.7,286047000.1,N
1637466135.6,286047000.1,N
1637466155.4,286047002.2,N
1637466175.3,286047000.3,N
1637466195.1,286047004.3,N
1637466196.0,286047004.3,N
1637466215.8,286047002.0,N
1637466235.7,286047002.0,N
1637466255.5,286047000.1,N
1637466275.3,286047000.2,N
1637466295.2,286047002.6,N
1637466315.0,286047002.1,N
1637466315.9,286047002.1,N
1637466335.8,286047005.8,Y
1637466355.6,286047001.6,P
1637466375.4,286047002.7,P
1637466395.3,286047001.9,P
1637466415.1,286047001.5,Y
1637466435.9,286047000.5,P
1637466455.7,286047000.6,N
1637466475.5,286046999.3,N
1637466495.4,286046998.0,N
1637466515.2,286046996.9,N
1637466535.0,286046999.5,N
1637466535.9,286046999.5,N
1637466555.8,286046997.0,N
1637466575.6,286046997.1,N
1637466595.5,286046997.2,N
1637466615.3,286046999.1,N
1637466635.1,286046999.1,N
1637466655.9,286046999.3,N
1637466675.7,286046996.6,N
1637466695.5,286046997.1,N
1637466715.4,286046997.0,N
1637466735.2,286046998.9,N
1637466755.1,286046999.6,N
1637466756.0,286046999.6,N
1637466775.8,286046996.9,N
1637466795.6,286046995.3,Y
1637466815.5,286046996.5,P
1637466835.3,286046996.7,P
1637466855.2,286046997.2,N
1637466875.9,286046996.8,Y
1637466895.7,286047002.6,P
1637466915.6,286046999.7,N
1637466935.4,286047002.7,N
1637466955.2,286047002.8,N
1637466975.1,286047000.6,N
1637466976.0,286047000.6,N
1637466995.8,286047000.6,N
1637467015.7,286046998.3,N
1637467035.5,286046998.3,N
1637467055.3,286046998.6,N
1637467075.2,286046999.0,N
1637467095.0,286046997.1,N
1637467095.9,286046997.1,N
1637467115.8,286046998.4,N
1637467135.6,286046998.8,N
1637467155.4,286046996.6,N
1637467175.3,286046998.6,N
1637467195.1,286046998.1,N
